• In Germany
  • List of Countries
  • For 7 days
  • Water Temperature
  • Satellite Maps
  • Weather Map
  • Weather Widgets
  • user-avatar
    Login

    Hourly Weather Panevezys

    Today, 26 September, Tuesday

    Time Temperature Precipitation Wind Pressure Humidity
    00:00 +11°C° 0 mm 3 mps 771 mmHg 89%
    01:00 +10°C° 0 mm 3 mps 771 mmHg 91%
    02:00 +10°C° 0 mm 3 mps 772 mmHg 92%
    03:00 +10°C° 0 mm 3 mps 772 mmHg 93%
    04:00 +9°C° 0 mm 3 mps 772 mmHg 93%
    05:00 +9°C° 0 mm 3 mps 772 mmHg 94%
    06:00 +10°C° 0 mm 3 mps 772 mmHg 91%
    07:00 +10°C° 0 mm 3 mps 772 mmHg 88%
    08:00 +11°C° 0 mm 3 mps 772 mmHg 85%
    09:00 +12°C° 0 mm 3 mps 772 mmHg 80%
    10:00 +14°C° 0 mm 3 mps 772 mmHg 75%
    11:00 +17°C° 0 mm 3 mps 772 mmHg 70%
    12:00 +17°C° 0 mm 3 mps 772 mmHg 68%
    13:00 +18°C° 0 mm 3 mps 772 mmHg 65%
    14:00 +19°C° 0 mm 3 mps 772 mmHg 62%
    15:00 +18°C° 0 mm 3 mps 772 mmHg 65%
    16:00 +18°C° 0 mm 3 mps 772 mmHg 69%
    17:00 +17°C° 0 mm 2 mps 772 mmHg 73%
    18:00 +16°C° 0 mm 3 mps 772 mmHg 77%
    19:00 +13°C° 0 mm 3 mps 772 mmHg 81%
    20:00 +11°C° 0 mm 3 mps 773 mmHg 86%
    21:00 +11°C° 0 mm 3 mps 773 mmHg 87%
    22:00 +10°C° 0 mm 3 mps 773 mmHg 88%
    23:00 +10°C° 0 mm 3 mps 773 mmHg 89%

    Tomorrow, 27 September, Wednesday

    Time Temperature Precipitation Wind Pressure Humidity
    00:00 +10°C° 0 mm 3 mps 774 mmHg 89%
    01:00 +9°C° 0 mm 2 mps 774 mmHg 90%
    02:00 +9°C° 0 mm 2 mps 774 mmHg 90%
    03:00 +9°C° 0 mm 2 mps 774 mmHg 91%
    04:00 +8°C° 0 mm 2 mps 774 mmHg 91%
    05:00 +8°C° 0 mm 2 mps 774 mmHg 92%
    06:00 +9°C° 0 mm 3 mps 774 mmHg 90%
    07:00 +9°C° 0 mm 3 mps 774 mmHg 88%
    08:00 +10°C° 0 mm 3 mps 775 mmHg 86%
    09:00 +12°C° 0 mm 3 mps 775 mmHg 81%
    10:00 +13°C° 0 mm 4 mps 775 mmHg 76%
    11:00 +15°C° 0 mm 4 mps 775 mmHg 71%
    12:00 +17°C° 0 mm 4 mps 775 mmHg 69%
    13:00 +17°C° 0 mm 4 mps 774 mmHg 67%
    14:00 +18°C° 0 mm 4 mps 774 mmHg 65%
    15:00 +17°C° 0 mm 3 mps 774 mmHg 68%
    16:00 +17°C° 0 mm 3 mps 774 mmHg 71%
    17:00 +16°C° 0 mm 3 mps 774 mmHg 74%
    18:00 +14°C° 0 mm 3 mps 774 mmHg 78%
    19:00 +12°C° 0 mm 3 mps 774 mmHg 82%
    20:00 +11°C° 0 mm 3 mps 775 mmHg 87%
    21:00 +10°C° 0 mm 2 mps 775 mmHg 87%
    22:00 +10°C° 0 mm 2 mps 775 mmHg 88%
    23:00 +9°C° 0 mm 2 mps 775 mmHg 89%

    Day after tomorrow, 28 September, Thursday

    Time Temperature Precipitation Wind Pressure Humidity
    00:00 +9°C° 0 mm 2 mps 775 mmHg 90%
    01:00 +9°C° 0 mm 2 mps 775 mmHg 90%
    02:00 +8°C° 0 mm 2 mps 776 mmHg 91%
    03:00 +8°C° 0 mm 2 mps 775 mmHg 91%
    04:00 +9°C° 0 mm 1 mps 775 mmHg 91%
    05:00 +9°C° 0 mm 1 mps 775 mmHg 92%
    06:00 +9°C° 0 mm 1 mps 775 mmHg 90%
    07:00 +10°C° 0 mm 1 mps 775 mmHg 88%
    08:00 +10°C° 0 mm 1 mps 775 mmHg 86%
    09:00 +12°C° 0 mm 2 mps 775 mmHg 80%
    10:00 +14°C° 0 mm 2 mps 775 mmHg 75%
    11:00 +15°C° 0 mm 2 mps 775 mmHg 69%
    12:00 +16°C° 0 mm 2 mps 775 mmHg 67%
    13:00 +17°C° 0 mm 2 mps 774 mmHg 64%
    14:00 +18°C° 0 mm 2 mps 774 mmHg 62%
    15:00 +17°C° 0 mm 2 mps 774 mmHg 66%
    16:00 +18°C° 0 mm 1 mps 774 mmHg 69%
    17:00 +16°C° 0 mm 1 mps 773 mmHg 73%
    18:00 +15°C° 0 mm 1 mps 773 mmHg 77%
    19:00 +13°C° 0 mm 1 mps 773 mmHg 82%
    20:00 +12°C° 0 mm 1 mps 774 mmHg 86%
    21:00 +11°C° 0 mm 1 mps 774 mmHg 87%
    22:00 +11°C° 0 mm 1 mps 774 mmHg 88%
    23:00 +11°C° 0 mm 1 mps 774 mmHg 89%

    29 September, Friday

    Time Temperature Precipitation Wind Pressure Humidity
    00:00 +10°C° 0 mm 1 mps 774 mmHg 89%
    01:00 +10°C° 0 mm 1 mps 774 mmHg 89%
    02:00 +10°C° 0 mm 1 mps 774 mmHg 89%
    03:00 +9°C° 0 mm 0 mps 774 mmHg 88%
    04:00 +9°C° 0 mm 0 mps 774 mmHg 88%
    05:00 +9°C° 0 mm 0 mps 773 mmHg 87%
    06:00 +10°C° 0 mm 0 mps 773 mmHg 86%
    07:00 +11°C° 0 mm 1 mps 773 mmHg 85%
    08:00 +12°C° 0 mm 1 mps 773 mmHg 83%
    09:00 +13°C° 0 mm 1 mps 773 mmHg 78%
    10:00 +14°C° 0 mm 1 mps 773 mmHg 72%
    11:00 +16°C° 0 mm 1 mps 773 mmHg 67%
    12:00 +16°C° 0 mm 1 mps 772 mmHg 65%
    13:00 +18°C° 0 mm 1 mps 772 mmHg 64%
    14:00 +18°C° 0 mm 1 mps 772 mmHg 62%
    15:00 +18°C° 0 mm 1 mps 771 mmHg 67%
    16:00 +16°C° 0 mm 2 mps 771 mmHg 71%
    17:00 +16°C° 0 mm 2 mps 770 mmHg 75%
    18:00 +14°C° 0 mm 2 mps 770 mmHg 80%
    19:00 +13°C° 0 mm 2 mps 770 mmHg 86%
    20:00 +12°C° 0 mm 2 mps 770 mmHg 91%
    21:00 +10°C° 0 mm 2 mps 770 mmHg 92%
    22:00 +10°C° 0 mm 2 mps 770 mmHg 94%
    23:00 +10°C° 0 mm 2 mps 769 mmHg 95%

    30 September, Saturday

    Time Temperature Precipitation Wind Pressure Humidity
    00:00 +9°C° 0 mm 2 mps 769 mmHg 95%
    01:00 +9°C° 0 mm 2 mps 769 mmHg 96%
    02:00 +9°C° 0 mm 2 mps 769 mmHg 96%
    03:00 +8°C° 0 mm 2 mps 769 mmHg 97%
    04:00 +8°C° 0 mm 2 mps 769 mmHg 97%
    05:00 +8°C° 0 mm 2 mps 769 mmHg 97%
    06:00 +8°C° 0 mm 2 mps 769 mmHg 95%
    07:00 +9°C° 0 mm 3 mps 769 mmHg 94%
    08:00 +9°C° 0 mm 3 mps 769 mmHg 92%
    09:00 +10°C° 0 mm 3 mps 769 mmHg 87%
    10:00 +11°C° 0 mm 4 mps 769 mmHg 81%
    11:00 +12°C° 0 mm 4 mps 769 mmHg 75%
    12:00 +13°C° 0 mm 4 mps 768 mmHg 73%
    13:00 +13°C° 0 mm 3 mps 768 mmHg 70%
    14:00 +13°C° 0 mm 3 mps 768 mmHg 67%
    15:00 +13°C° 0 mm 3 mps 768 mmHg 68%
    16:00 +12°C° 0 mm 3 mps 768 mmHg 70%
    17:00 +13°C° 0 mm 2 mps 768 mmHg 71%
    18:00 +12°C° 0 mm 2 mps 768 mmHg 72%
    19:00 +10°C° 0 mm 3 mps 768 mmHg 73%
    20:00 +10°C° 0 mm 3 mps 768 mmHg 74%
    21:00 +9°C° 0 mm 3 mps 768 mmHg 78%
    22:00 +8°C° 0 mm 3 mps 769 mmHg 82%
    23:00 +7°C° 0 mm 2 mps 769 mmHg 85%

    1 October, Sunday

    Time Temperature Precipitation Wind Pressure Humidity
    00:00 +6°C° 0 mm 2 mps 769 mmHg 87%
    01:00 +6°C° 0 mm 2 mps 769 mmHg 88%
    02:00 +5°C° 0 mm 2 mps 769 mmHg 90%
    03:00 +5°C° 0 mm 2 mps 769 mmHg 90%
    04:00 +5°C° 0 mm 2 mps 769 mmHg 90%
    05:00 +4°C° 0 mm 2 mps 769 mmHg 90%
    06:00 +5°C° 0 mm 2 mps 769 mmHg 87%
    07:00 +4°C° 0 mm 3 mps 769 mmHg 84%
    08:00 +5°C° 0 mm 3 mps 769 mmHg 81%
    09:00 +7°C° 0 mm 3 mps 769 mmHg 74%
    10:00 +9°C° 0 mm 3 mps 769 mmHg 68%
    11:00 +10°C° 0 mm 3 mps 769 mmHg 62%
    12:00 +10°C° 0 mm 3 mps 769 mmHg 60%
    13:00 +11°C° 0 mm 3 mps 768 mmHg 59%
    14:00 +11°C° 0 mm 3 mps 768 mmHg 58%
    15:00 +12°C° 0 mm 2 mps 768 mmHg 61%
    16:00 +10°C° 0 mm 2 mps 768 mmHg 64%
    17:00 +10°C° 0 mm 2 mps 768 mmHg 67%
    18:00 +9°C° 0 mm 2 mps 768 mmHg 68%
    19:00 +8°C° 0 mm 2 mps 768 mmHg 70%
    20:00 +7°C° 0 mm 2 mps 768 mmHg 71%
    21:00 +7°C° 0 mm 2 mps 768 mmHg 72%
    22:00 +8°C° 0 mm 1 mps 768 mmHg 73%
    23:00 +8°C° 0 mm 1 mps 768 mmHg 73%
    Show more